CZ-6A DEB, 54329

Orbit data source: Space-Track

CZ-6A DEB, 54329 is space debris in SSO originally from a launch on Fri, 11 Nov 2022 UTC launched from the Taiyaun Space Center, China (TSC). Debris objects in space refer to the collection of defunct objects orbiting the Earth. Examples of debris include non-operational satellites, rocket bodies, and fragments generated from explosions, collisions, or faulty payload assembly.

Loading next visibility...
Identifier
54329, 2022-151BY
Orbit
SSO
Country
Flag of CNCN / PRC
Related business
Manufacturer
SAST
Mission
Spacecraft
Bus & Motor
Unknown
Mass
Unknown
Launch date (UTC)
2022-11-11 (3 years ago)
Launch vehicle
Unknown
Launch site
Taiyaun Space Center, China (TSC)
Object type
Payload
Rocket body
Debris
Shape & HBR
Unknown shape, 0.1 m
Radar Cross Section
Small (<0.1 m²)

Expand to show TLE details & history
Last TLE update: 9 hours ago

TLE from 9 hours ago
0 CZ-6A DEB
1 54329U 22151BY  26130.18522527  .00008191  00000-0  86727-3 0  9990
2 54329  98.6305 226.9865 0089861 226.8452 132.5225 14.86484228186074
Epoch: 2026-05-10T04:26Z
TLE epoch observation values (Epoch: 2026-05-10T04:26:43.463Z)
Latitude
-0.00003°
Longitude
-67.68653°
Altitude
654.687 km
Speed
7.507 km/s
True Right ascension
15h 07m 56s
True Declination
0° 00' 00"
Sunlit
Object was in full shadow at epoch
Visualization orbit readout
Latitude
Unknown
Longitude
Unknown
Altitude
Unknown
Speed
Unknown
Apparent Right ascension
Unknown
Apparent Declination
Unknown
Sunlit
N/A
Visualization observer readout
Local Sidereal Time
21:25:00
Azimuth
Unknown
Elevation
Unknown
Doppler factor
Unknown
Orbital elements
Apogee altitude
668.757 km
Perigee altitude
543.237 km
Semi-major axis
6,984.134 km
Eccentricity
0.00899
Inclination
98.6305°
RAAN
226.9865°
Arg. of periapsis
226.8452°
True anomaly
133.27568°
Mean anomaly
132.5225°
Eccentric anomaly
132.89966°
Mean motion
3.71856 °/min
Orbital period
96.81 mins
BSTAR
0.00086727
Loading maneuver chart data...
Computing Atmospheric mass density...
Loading historical data...
Loading historical data...
Loading historical data...
Loading historical data...
Loading historical data...
Loading historical data...
Loading historical data...

Documentation

Showing up to 5 results
|